Location: Praha
(50.0830°N, 14.4670°E)
Time: 16:41:41
(UTC+02:00)

ISS - Visible Passes

Search period start: 13 July 2025 00:00
Search period end: 23 July 2025 00:00
Orbit: 413 x 417 km, 51.6° (Epoch: 13 July)

Date Brightness Start Highest point End Pass type
(mag) Time Alt. Az. Time Alt. Az. Time Alt. Az.
13 Jul -3.6 00:24:37 10° WNW 00:27:58 75° NNE 00:30:33 16° E visible
13 Jul -2.5 02:01:25 10° W 02:03:20 27° WSW 02:03:20 27° WSW visible
13 Jul -3.7 21:58:51 10° WSW 22:02:12 85° NNW 22:05:33 10° ENE visible
13 Jul -3.4 23:35:43 10° WNW 23:39:03 67° N 23:42:24 10° E visible
14 Jul -3.5 01:12:29 10° WNW 01:15:19 49° WSW 01:15:19 49° WSW visible
14 Jul -3.3 22:46:48 10° W 22:50:08 64° N 22:53:28 10° E visible
15 Jul -3.9 00:23:35 10° WNW 00:26:56 75° SSW 00:27:33 54° SE visible
15 Jul -3.4 21:57:51 10° W 22:01:10 67° N 22:04:31 10° ENE visible
15 Jul -3.8 23:34:40 10° WNW 23:38:02 86° NNE 23:39:55 24° ESE visible
16 Jul -1.7 01:11:35 10° W 01:12:45 18° W 01:12:45 18° W visible
16 Jul -3.6 22:45:44 10° WNW 22:49:05 73° N 22:52:21 10° E visible
17 Jul -3.0 00:22:31 10° W 00:25:11 38° SW 00:25:11 38° SW visible
17 Jul -3.4 21:56:47 10° W 22:00:06 66° N 22:03:27 10° E visible
17 Jul -3.7 23:33:32 10° WNW 23:36:50 59° SSW 23:37:41 42° SSE visible
18 Jul -3.9 22:44:34 10° WNW 22:47:55 79° SSW 22:50:12 19° ESE visible
19 Jul -1.7 00:21:40 10° W 00:23:02 17° WSW 00:23:02 17° WSW visible
19 Jul -3.7 21:55:35 10° WNW 21:58:56 82° NNE 22:02:17 10° ESE visible
19 Jul -2.8 23:32:27 10° W 23:35:28 31° SSW 23:35:35 31° SSW visible
20 Jul -3.3 22:43:21 10° WNW 22:46:34 45° SSW 22:48:10 24° SSE visible
21 Jul -3.6 21:54:18 10° WNW 21:57:37 63° SSW 22:00:46 11° ESE visible
21 Jul -1.7 23:31:46 10° W 23:33:37 15° SW 23:33:37 15° SW visible
22 Jul -2.2 22:42:17 10° W 22:44:59 23° SW 22:46:15 18° S visible
